Location: Bezinghem
(50.5950°N, 1.8261°E)
Time: 12:41:45
(UTC+00:00)

Daily predictions for brighter satellites

Satellite Brightness Start Highest point End
(mag) Time Altitude Azimuth Time Altitude Azimuth Time Altitude Azimuth
Starlink (trailer) 4.1 17:25:03 10° SW 17:29:02 48° SSE 17:33:02 10° ENE
Meteor 2-12 Rocket 4.5 17:23:00 10° N 17:29:10 66° ENE 17:35:17 10° SSE
Cosmos 1703 4.4 17:26:09 10° NNE 17:29:22 23° ENE 17:32:33 10° ESE
Unknown 3.5 17:26:10 10° W 17:29:39 57° N 17:33:07 10° ENE
Ariane Rocket 4.1 17:25:58 10° ESE 17:29:57 24° ENE 17:33:57 10° N
Unknown 4.0 17:26:40 10° SW 17:30:40 49° SSE 17:34:41 10° ENE
Cosmos 2082 Rocket 3.5 17:26:47 10° NNW 17:31:15 23° NE 17:35:41 10° E
Unknown 4.0 17:28:16 10° SW 17:32:17 50° SSE 17:36:18 10° ENE
COSMOS 2406 3.6 17:27:38 10° NNW 17:33:14 47° NE 17:38:46 10° SE
Cosmos 1758 Rocket 3.6 17:29:21 10° N 17:33:49 79° E 17:38:18 10° SSE
Cosmos 1953 2.5 17:31:01 10° S 17:34:57 50° E 17:38:55 10° NNE
Cosmos 1992 Rocket 4.2 17:31:54 10° S 17:36:55 48° ESE 17:41:56 10° NNE
Cosmos 1503 Rocket 4.0 17:32:29 10° NNW 17:37:42 89° WSW 17:42:52 10° SSE
Unknown 3.9 17:34:45 10° SW 17:38:48 55° SSE 17:42:52 10° ENE
Cosmos 371 Rocket 4.3 17:34:10 10° SW 17:38:50 48° WNW 17:43:31 10° NNE
Unknown 3.9 17:34:55 10° SW 17:38:58 55° SSE 17:43:01 10° ENE
Unknown 3.9 17:35:38 10° SW 17:39:41 55° SSE 17:43:44 10° ENE
Lacrosse 5 2.5 17:35:00 10° WNW 17:39:51 44° N 17:44:42 10° E
Cosmos 304 Rocket 3.8 17:35:05 10° SSW 17:39:54 87° ESE 17:44:45 10° NNE
Unknown 3.5 17:37:34 10° W 17:41:18 71° NNW 17:45:02 10° ENE
Cosmos 1758 3.4 17:37:33 10° SSW 17:41:32 83° W 17:45:32 10° N
CSL-04 Debris 4.3 17:37:04 10° SE 17:42:21 53° ENE 17:47:42 10° N
Cosmos 2285 Rocket 4.2 17:36:45 10° NNW 17:43:14 84° WSW 17:49:39 10° SSE
Cosmos 724 4.4 17:37:19 10° SSW 17:43:27 78° SE 17:49:29 10° NE
Unknown 3.8 17:39:35 10° SW 17:43:39 58° SSE 17:47:41 10° ENE
Unknown 3.8 17:39:51 10° SW 17:43:55 58° SSE 17:47:56 10° ENE
Unknown 3.8 17:41:35 10° SW 17:45:40 61° SSE 17:49:38 11° ENE
Cosmos 839 Rocket 4.1 17:40:04 10° NW 17:46:13 67° NE 17:52:55 10° SE
Cosmos 1461 4.0 17:45:15 10° NNW 17:48:42 26° NE 17:51:48 12° E
Unknown 3.7 17:44:53 10° SW 17:48:58 64° SSE 17:52:49 12° ENE
Unknown 3.5 17:45:20 10° WSW 17:49:10 77° NNW 17:52:44 12° ENE
Unknown 3.7 17:45:22 10° SW 17:49:28 63° SSE 17:53:16 12° ENE
SKYMED 2 3.8 17:45:15 10° NNE 17:49:30 49° E 17:53:43 10° S
FengYun 1-2 T 4.2 17:44:13 10° SSE 17:49:50 74° ENE 17:55:28 10° NNW
Unknown 3.7 17:46:28 10° SW 17:50:34 63° SSE 17:54:20 12° ENE
Unknown 3.5 17:47:58 10° WSW 17:51:53 82° NNW 17:55:25 12° ENE
Unknown 3.7 17:49:40 10° SW 17:53:46 64° SSE 17:57:25 13° ENE
COBE Rocket 4.0 17:50:53 10° NNE 17:56:06 73° E 18:01:13 10° S
Cosmos 1844 Rocket 2.7 17:50:57 10° SSW 17:56:34 70° ESE 18:02:12 10° NNE
YAOGAN 1 2.6 17:52:22 10° SSE 17:56:38 61° ENE 18:00:55 10° N
Unknown 3.7 17:53:03 10° WSW 17:57:11 68° SSE 18:00:42 14° ENE
YAOGAN 6 2.5 17:55:07 10° SSE 17:58:47 74° ENE 18:02:26 10° N
Unknown 3.7 17:54:43 10° WSW 17:58:51 69° SSE 18:02:18 14° ENE
H-2A R/B 3.6 17:57:23 13° E 17:59:56 17° NE 18:03:22 10° NNE
Unknown 3.6 17:56:23 10° WSW 18:00:31 71° SSE 18:03:54 15° ENE
Unknown 3.6 17:58:02 10° WSW 18:02:10 72° SSE 18:05:30 15° ENE
Meteor 1-16 Rocket 4.2 17:57:11 10° S 18:02:37 56° E 18:07:54 10° NNE
Lacrosse 5 rocket 2.5 17:59:21 10° WNW 18:02:50 37° SW 18:06:29 10° SSE
Cosmos 1939 Rocket 3.4 17:59:34 10° SE 18:03:14 36° ENE 18:06:58 10° N
Unknown 3.6 18:01:21 10° WSW 18:05:29 75° SSE 18:08:41 16° ENE
Unknown 3.6 18:03:03 10° WSW 18:07:12 77° SSE 18:10:20 17° ENE
Cosmos 1908 3.9 18:04:36 10° SSE 18:08:04 31° E 18:11:34 10° NNE
Unknown 3.6 18:04:42 10° WSW 18:08:50 78° SSE 18:11:55 18° ENE
Cosmos 1726 Rocket 3.5 18:05:29 10° S 18:09:53 81° E 18:14:17 10° NNE
Unknown 3.6 18:06:18 10° WSW 18:10:26 78° SSE 18:13:27 18° ENE
Unknown 3.6 18:06:47 10° WSW 18:10:55 79° SSE 18:13:56 18° ENE
ATLAS CENTAUR R/B 3.9 18:09:34 10° NW 18:12:15 15° N 18:14:52 10° NNE
Unknown 3.6 18:09:28 10° WSW 18:13:36 78° SSE 18:16:28 19° ENE
Shenzhou-11 Module 4.0 18:12:36 10° SSW 18:14:23 16° S 18:15:24 13° SSE
Cosmos 1470 4.4 18:10:42 10° SW 18:14:26 38° WNW 18:18:11 10° N
Cosmos 1328 3.7 18:11:10 10° N 18:15:11 75° ENE 18:19:08 10° SSE
Cosmos 2278 Rocket 3.0 18:10:48 10° SSE 18:15:32 28° ESE 18:20:18 10° NE
CZ-4C R/B 4.3 18:09:30 10° NW 18:16:10 41° WSW 18:23:37 10° S
Unknown 3.6 18:12:49 10° WSW 18:16:58 81° SSE 18:19:43 21° ENE
Unknown 3.6 18:14:26 10° WSW 18:18:35 82° SSE 18:21:15 21° ENE
Cosmos 2228 3.2 18:14:54 10° SSW 18:19:17 78° W 18:23:39 10° N
Cosmos 1844 3.7 18:13:40 10° SSW 18:19:23 81° ESE 18:25:12 10° NNE
Unknown 3.6 18:16:21 10° WSW 18:20:31 87° SSE 18:23:08 22° ENE
Unknown 3.6 18:17:44 10° WSW 18:21:54 84° SSE 18:24:27 23° ENE
Cosmos 2058 Rocket 2.9 18:18:10 10° S 18:22:30 73° E 18:26:52 10° NNE
Unknown 3.5 18:19:26 10° WSW 18:23:35 86° SSE 18:26:03 24° ENE
CZ-4 R/B 2.2 18:20:04 10° S 18:24:10 57° W 18:28:21 10° NNW
ATLAS 5 CENTAUR R/B 2.1 18:20:38 10° WSW 18:24:58 62° NW 18:29:55 10° NE
Envisat 4.1 18:21:08 10° S 18:26:02 48° W 18:30:58 10° NNW
Unknown 3.5 18:22:45 10° WSW 18:26:55 88° SSE 18:29:16 25° ENE
Unknown 3.6 18:24:27 10° WSW 18:28:36 89° SSE 18:30:53 26° ENE
Cosmos 921 Rocket 3.0 18:25:41 10° SSW 18:30:12 88° ESE 18:34:42 10° NNE
Unknown 3.6 18:26:06 10° WSW 18:30:16 90° W 18:32:29 27° ENE
Unknown 3.6 18:27:47 10° WSW 18:31:57 89° NNW 18:34:06 28° ENE
Cosmos 1605 Rocket 3.9 18:26:27 10° N 18:32:42 79° ENE 18:38:50 10° SSE
FREGAT/IRIS 4.3 18:34:03 18° NNE 18:34:03 18° NNE 18:35:10 10° N
Unknown 3.6 18:31:06 10° WSW 18:35:15 86° NNW 18:37:16 30° ENE
Unknown 2.9 18:32:48 10° WNW 18:35:55 72° SSW 18:36:51 41° SE
Cosmos 1356 3.3 18:32:50 10° S 18:36:16 86° ESE 18:39:44 10° NNE
Unknown 3.6 18:32:40 10° WSW 18:36:50 84° NNW 18:38:47 30° ENE
DMSP B5D1-3 4.5 18:31:58 10° NNE 18:37:05 63° ESE 18:42:10 10° S
Unknown 3.6 18:33:03 10° WSW 18:37:13 81° NNW 18:39:10 30° ENE
Cosmos 2084 3.6 18:33:02 10° SW 18:37:33 77° NW 18:41:05 16° NE
COSMO-SKYMED 1 3.2 18:33:21 10° N 18:37:38 58° WNW 18:41:54 10° SSW
ADEOS Rocket 4.2 18:31:17 10° NNE 18:37:51 29° E 18:44:05 10° SSE
Unknown 3.6 18:34:40 10° WSW 18:38:49 81° NNW 18:40:43 31° ENE
FALCON 9 DEB 3.3 18:35:32 10° WNW 18:39:00 64° N 18:39:59 42° ENE
CSL-04 Rocket 4.4 18:35:37 10° S 18:41:04 58° WSW 18:46:31 10° NNW
Unknown 3.6 18:37:43 10° WSW 18:41:53 82° NNW 18:43:38 34° ENE
USA 116 3.4 18:39:39 10° N 18:42:45 69° WNW 18:45:58 10° SSW
Cosmos 1727 Rocket 4.1 18:36:57 10° SSE 18:42:52 51° E 18:48:48 10° NNE
Cosmos 2263 Rocket 4.4 18:39:00 10° W 18:43:19 22° NW 18:47:39 10° NNE
Unknown 3.3 18:40:19 10° WNW 18:43:49 63° N 18:44:38 45° ENE
ASTEX 1 4.2 18:39:28 10° N 18:44:18 55° WNW 18:49:08 10° SSW
Resurs 01 Rocket 3.5 18:45:25 16° NE 18:45:25 16° NE 18:47:15 10° NNE
Unknown 3.6 18:41:01 10° WSW 18:45:11 80° NNW 18:46:48 36° ENE
NOAA 11 4.2 18:41:00 10° SSE 18:46:28 84° WSW 18:51:57 10° NNW
Unknown 3.6 18:42:46 10° WSW 18:46:56 79° NNW 18:48:29 37° ENE
Unknown 3.1 18:44:15 10° WNW 18:47:40 71° NNE 18:48:13 56° ENE
SJ 16-02 3.1 18:44:58 10° N 18:47:27 18° NE 18:47:27 18° NE
Unknown 3.6 18:44:22 10° WSW 18:48:30 79° NNW 18:50:00 39° ENE
CZ-2D R/B 3.6 18:46:04 10° S 18:49:53 66° W 18:53:46 10° NNW
Unknown 3.6 18:46:05 10° WSW 18:50:15 78° NNW 18:51:40 40° ENE
Unknown 3.6 18:47:20 10° W 18:51:25 74° NNW 18:52:45 41° ENE
Cosmos 2173 Rocket 4.2 18:47:47 10° N 18:53:51 48° ENE 18:56:56 27° SE
Cosmos 1726 2.9 18:50:34 10° SSW 18:54:08 53° WNW 18:57:44 10° N
Cosmos 2058 3.4 18:51:04 10° N 18:54:47 39° ENE 18:54:47 39° ENE
Cosmos 1833 Rocket 2.6 18:50:38 10° NNW 18:56:17 85° ENE 18:59:52 23° SSE
Unknown 3.7 18:52:42 10° W 18:56:52 74° NNW 18:58:00 46° ENE
BREEZE M DEB (TANK) 3.5 18:55:22 10° W 18:57:50 33° SSW 18:59:45 23° SSE
ARGOS 3.6 18:57:06 36° E 18:58:13 40° ENE 19:03:16 10° N
Unknown 3.7 18:54:24 10° W 18:58:34 74° NNW 18:59:38 47° ENE
Falcon 9 debris 3.0 18:56:22 10° WNW 18:59:50 77° NNE 18:59:57 76° NE
Unknown 3.7 18:55:53 10° W 18:59:55 66° N 19:00:51 48° NE
Unknown 3.7 18:56:04 10° W 19:00:13 73° NNW 19:01:14 49° NE
Unknown 3.7 18:57:39 10° W 19:01:48 72° NNW 19:02:44 50° NE
Unknown 3.7 18:59:23 10° W 19:03:32 72° NNW 19:04:24 52° NE
Gbstr 26 Del rocket 4.1 18:58:55 10° WNW 19:05:06 77° SSW 19:08:28 34° ESE
Unknown 3.7 19:02:45 10° W 19:06:54 70° NNW 19:07:38 55° NE
Unknown 3.2 19:03:34 10° WNW 19:06:59 75° N 19:06:59 75° N
Ariane Rocket 3.4 19:03:27 10° S 19:08:31 64° WSW 19:13:36 10° NNW
Starlink (trailer) 3.7 19:04:26 10° W 19:08:34 70° NNW 19:09:14 57° NE
USA 238 DEB 3.9 19:03:43 10° S 19:09:55 42° ESE 19:11:09 39° E
USA 238 4.0 19:03:50 10° S 19:10:02 42° ESE 19:11:10 39° E
Unknown 3.7 19:06:04 10° W 19:10:13 69° NNW 19:10:49 59° NE
Cosmos 1725 Rocket 4.5 19:05:25 10° N 19:11:13 37° ENE 19:11:31 37° ENE
Unknown 3.7 19:07:41 10° W 19:11:50 68° N 19:12:22 60° NE
Cosmos 2100 Rocket 3.9 19:06:58 10° N 19:13:11 68° ENE 19:16:25 29° SSE
SJ-6B 3.4 19:14:19 44° NNE 19:14:19 44° NNE 19:17:06 10° N
Cosmos 967 Rocket 4.4 19:07:51 10° NW 19:14:20 83° NE 19:17:00 39° SE
Cosmos 2082 Rocket 2.1 19:10:27 10° NNW 19:16:13 85° ENE 19:18:18 41° SE
Unknown 3.7 19:14:16 10° W 19:18:24 66° N 19:18:38 64° NNE
Unknown 3.7 19:14:25 10° W 19:18:33 66° N 19:18:48 64° NNE
Unknown 3.7 19:15:08 10° W 19:19:17 66° N 19:19:29 65° NNE
Unknown 3.7 19:15:53 10° WNW 19:19:16 58° NNW 19:19:16 58° NNW
SPOT 3 Rocket 3.4 19:19:14 52° SE 19:20:25 71° ENE 19:25:37 10° NNW
Cosmos 292 Rocket 4.4 19:18:06 10° SW 19:22:45 54° WNW 19:27:26 10° NNE
Lacrosse 5 1.7 19:18:09 10° WNW 19:23:14 88° SW 19:23:56 67° SE
Unknown 3.8 19:19:08 10° W 19:23:16 65° N 19:23:19 65° N
Unknown 3.8 19:19:25 10° W 19:23:33 65° N 19:23:35 65° N
Cosmos 1812 Rocket 3.5 19:19:50 10° S 19:24:15 87° W 19:28:45 10° N
Unknown 3.8 19:21:12 10° W 19:25:17 64° N 19:25:17 64° N
Cosmos 1937 Rocket 4.1 19:22:00 10° NNW 19:26:12 38° NE 19:26:12 38° NE
Unknown 4.0 19:24:00 10° WNW 19:27:16 53° NW 19:27:16 53° NW
Cosmos 1461 3.2 19:24:03 10° NW 19:28:04 60° SW 19:28:13 59° SW
Unknown 3.9 19:24:31 10° W 19:28:28 63° NNW 19:28:28 63° NNW
Unknown 3.9 19:25:00 10° W 19:28:55 63° NNW 19:28:55 63° NNW
Unknown 3.9 19:26:05 10° W 19:29:59 62° NNW 19:29:59 62° NNW
Unknown 4.1 19:26:53 10° WNW 19:30:11 52° NW 19:30:11 52° NW
Cosmos 2084 Rocket 3.7 19:27:24 10° NW 19:31:23 65° N 19:31:23 65° N
Unknown 4.0 19:29:19 10° W 19:33:04 60° NW 19:33:04 60° NW
Cosmos 990 Rocket 4.2 19:30:42 10° NNW 19:35:19 55° NE 19:35:19 55° NE
NOSS 3-2 (A) 4.2 19:30:40 10° SSW 19:33:54 32° S 19:33:54 32° S
Unknown 4.1 19:32:44 10° W 19:36:21 56° NW 19:36:21 56° NW
Cosmos 2016 Rocket 3.9 19:31:11 10° N 19:37:26 67° ENE 19:38:11 61° ESE
Cosmos 1076 Rocket 4.1 19:33:59 10° NNW 19:38:17 57° W 19:39:05 48° SW
Unknown 4.2 19:34:26 10° W 19:37:57 54° NW 19:37:57 54° NW
H-2A R/B 2.0 19:38:00 72° SE 19:38:34 84° ENE 19:44:00 10° NNW
NOSS 3-3 (A) 4.5 19:32:21 10° NW 19:39:45 83° SW 19:42:40 44° SSE
NOSS 3-3 (C) 4.5 19:32:25 10° NW 19:39:50 83° SW 19:42:45 44° SSE
Unknown 4.3 19:36:05 10° W 19:39:33 53° NW 19:39:33 53° NW
Unknown 4.3 19:37:45 10° W 19:41:09 51° NW 19:41:09 51° NW
SL-08 R/B 4.4 19:36:15 10° N 19:42:13 62° ENE 19:42:13 62° ENE
In-Cosmos 22 Rocket 4.0 19:39:22 10° NNW 19:44:45 86° WSW 19:45:16 73° S
Unknown 4.5 19:41:05 10° W 19:44:20 48° NW 19:44:20 48° NW
Cosmos 2061 Rocket 3.8 19:42:24 10° N 19:48:44 83° E 19:49:35 68° SSE
ATLAS CENTAUR R/B 3.7 19:49:37 10° NNW 19:52:13 18° N 19:52:13 18° N
Cosmos 2278 Rocket 2.7 19:53:40 10° SW 19:59:17 59° NW 20:04:37 12° NNE
MetOp-A 4.5 20:02:37 57° N 20:02:37 57° N 20:06:53 10° NNW
CZ-2C R/B 3.3 20:02:00 77° N 20:02:00 77° N 20:07:24 10° NNW
Cosmos 1898 Rocket 3.9 20:04:08 10° NNW 20:08:28 59° NW 20:08:28 59° NW
ATLAS 5 CENTAUR R/B 3.8 20:06:49 10° WNW 20:10:37 23° NNW 20:11:49 22° N
Resurs 01 Rocket 3.6 20:22:59 24° NNW 20:22:59 24° NNW 20:24:51 10° NNW
ADEOS Rocket 3.6 20:16:13 10° NNE 20:24:01 75° WNW 20:31:22 10° SSW
SJ 16-02 3.5 20:22:44 10° NNW 20:24:27 23° NNW 20:24:27 23° NNW
ARGOS 4.4 20:38:37 37° W 20:38:37 37° W 20:43:33 10° NNW
Cosmos 2082 Rocket 4.3 20:55:45 10° WNW 20:59:34 19° W 21:00:11 18° WSW
USA 238 DEB 4.5 20:54:01 10° WSW 20:58:40 44° W 20:58:40 44° W
Lacrosse 5 4.4 21:01:44 10° WNW 21:03:09 16° W 21:03:09 16° W
H-2A R/B 4.5 21:18:39 17° W 21:18:42 17° W 21:22:08 10° NW
